TimeCST,TemperatureF,Dew PointF,Humidity,Sea Level PressureIn,VisibilityMPH,Wind Direction,Wind SpeedMPH,Gust SpeedMPH,PrecipitationIn,Events,Conditions,WindDirDegrees,DateUTC
12:35 AM,32.0,15.8,51,29.87,10.0,NW,8.1,-,N/A,,Clear,320,2013-01-12 06:35:00
12:55 AM,32.0,17.6,55,29.87,10.0,NW,6.9,-,N/A,,Clear,320,2013-01-12 06:55:00
1:15 AM,30.2,19.4,64,29.87,10.0,NNW,6.9,-,N/A,,Clear,340,2013-01-12 07:15:00
1:35 AM,30.2,19.4,64,29.88,10.0,NNW,5.8,-,N/A,,Clear,340,2013-01-12 07:35:00
2:15 AM,30.2,19.4,64,29.89,10.0,North,5.8,-,N/A,,Scattered Clouds,10,2013-01-12 08:15:00
2:35 AM,32.0,17.6,55,29.89,10.0,North,6.9,-,N/A,,Scattered Clouds,350,2013-01-12 08:35:00
2:55 AM,30.2,19.4,64,29.90,10.0,North,4.6,-,N/A,,Mostly Cloudy,10,2013-01-12 08:55:00
3:35 AM,30.2,19.4,64,29.90,10.0,North,3.5,-,N/A,,Overcast,350,2013-01-12 09:35:00
3:55 AM,30.2,19.4,64,29.89,10.0,North,4.6,-,N/A,,Mostly Cloudy,350,2013-01-12 09:55:00
4:15 AM,30.2,21.2,69,29.89,10.0,North,5.8,-,N/A,,Mostly Cloudy,360,2013-01-12 10:15:00
4:35 AM,32.0,19.4,60,29.89,10.0,NNE,8.1,-,N/A,,Overcast,30,2013-01-12 10:35:00
4:55 AM,30.2,21.2,69,29.90,10.0,NNE,12.7,17.3,N/A,,Overcast,30,2013-01-12 10:55:00
5:15 AM,30.2,23.0,75,29.90,10.0,NNE,12.7,-,N/A,,Mostly Cloudy,30,2013-01-12 11:15:00
5:35 AM,28.4,23.0,80,29.91,10.0,NE,15.0,-,N/A,,Scattered Clouds,40,2013-01-12 11:35:00
5:55 AM,28.4,23.0,80,29.92,10.0,NE,12.7,17.3,N/A,,Mostly Cloudy,50,2013-01-12 11:55:00
6:15 AM,28.4,23.0,80,29.92,10.0,NE,12.7,-,N/A,,Scattered Clouds,50,2013-01-12 12:15:00
6:55 AM,28.4,23.0,80,29.93,10.0,NE,10.4,-,N/A,,Mostly Cloudy,40,2013-01-12 12:55:00
7:15 AM,28.4,23.0,80,29.94,10.0,NE,12.7,-,N/A,,Overcast,50,2013-01-12 13:15:00
7:55 AM,26.6,23.0,86,29.94,10.0,NE,12.7,-,N/A,,Overcast,40,2013-01-12 13:55:00
8:15 AM,26.6,23.0,86,29.95,10.0,NNE,13.8,-,N/A,,Overcast,30,2013-01-12 14:15:00
8:35 AM,26.6,23.0,86,29.96,10.0,NNE,11.5,-,N/A,,Overcast,20,2013-01-12 14:35:00
8:55 AM,26.6,23.0,86,29.96,10.0,NNE,17.3,-,N/A,,Overcast,30,2013-01-12 14:55:00
9:15 AM,26.6,21.2,80,29.97,10.0,NNE,17.3,20.7,N/A,,Overcast,30,2013-01-12 15:15:00
9:35 AM,26.6,19.4,74,29.96,10.0,NE,16.1,-,N/A,,Overcast,40,2013-01-12 15:35:00
9:55 AM,26.6,17.6,69,29.98,10.0,NE,15.0,-,N/A,,Overcast,40,2013-01-12 15:55:00
10:15 AM,28.4,17.6,64,29.98,10.0,NE,16.1,-,N/A,,Overcast,50,2013-01-12 16:15:00
10:35 AM,28.4,17.6,64,29.97,10.0,NE,16.1,-,N/A,,Overcast,40,2013-01-12 16:35:00
10:55 AM,28.4,17.6,64,29.98,10.0,NE,16.1,-,N/A,,Overcast,40,2013-01-12 16:55:00
11:15 AM,28.4,15.8,59,29.96,10.0,NE,15.0,-,N/A,,Overcast,40,2013-01-12 17:15:00
11:35 AM,26.6,15.8,64,29.97,10.0,NNE,16.1,-,N/A,,Mostly Cloudy,30,2013-01-12 17:35:00
11:55 AM,26.6,15.8,64,29.95,10.0,NNE,15.0,18.4,N/A,,Overcast,20,2013-01-12 17:55:00
12:15 PM,26.6,14.0,59,29.97,10.0,NNE,13.8,21.9,N/A,,Overcast,30,2013-01-12 18:15:00
12:55 PM,24.8,17.6,74,29.96,1.0,NNE,13.8,20.7,N/A,Snow,Light Snow,20,2013-01-12 18:55:00
1:15 PM,23.0,19.4,86,29.96,0.5,North,13.8,-,N/A,Snow,Snow,10,2013-01-12 19:15:00
1:35 PM,23.0,19.4,86,29.94,0.5,North,15.0,-,N/A,Snow,Snow,10,2013-01-12 19:35:00
1:55 PM,23.0,19.4,86,29.95,-9999.0,North,15.0,19.6,N/A,,Overcast,360,2013-01-12 19:55:00
2:15 PM,21.2,19.4,93,29.96,-9999.0,North,10.4,19.6,N/A,,Overcast,10,2013-01-12 20:15:00
2:35 PM,21.2,19.4,93,29.96,-9999.0,North,10.4,-,N/A,,Overcast,10,2013-01-12 20:35:00
2:55 PM,21.2,19.4,93,29.96,-9999.0,North,13.8,-,N/A,,Overcast,10,2013-01-12 20:55:00
3:15 PM,21.2,19.4,93,29.95,-9999.0,North,15.0,-,N/A,,Unknown,10,2013-01-12 21:15:00
3:35 PM,21.2,17.6,86,29.94,-9999.0,NNE,13.8,-,N/A,,Unknown,20,2013-01-12 21:35:00
3:55 PM,21.2,17.6,86,29.94,-9999.0,NNE,16.1,20.7,N/A,,Overcast,30,2013-01-12 21:55:00
4:15 PM,21.2,17.6,86,29.94,-9999.0,NNE,13.8,-,N/A,,Unknown,30,2013-01-12 22:15:00
4:35 PM,21.2,17.6,86,29.95,-9999.0,NNE,16.1,19.6,N/A,,Overcast,30,2013-01-12 22:35:00
4:55 PM,19.4,17.6,93,29.95,-9999.0,North,16.1,-,N/A,,Overcast,10,2013-01-12 22:55:00
5:15 PM,19.4,17.6,93,29.96,5.0,North,11.5,-,N/A,,Overcast,10,2013-01-12 23:15:00
5:35 PM,19.4,17.6,93,29.97,7.0,North,10.4,-,N/A,,Overcast,360,2013-01-12 23:35:00
5:55 PM,19.4,17.6,93,29.96,10.0,NNE,15.0,-,N/A,,Overcast,30,2013-01-12 23:55:00
6:15 PM,19.4,17.6,93,29.97,7.0,North,12.7,-,N/A,,Overcast,10,2013-01-13 00:15:00
6:35 PM,19.4,17.6,93,29.97,7.0,NNE,9.2,-,N/A,Snow,Light Snow,20,2013-01-13 00:35:00
7:15 PM,19.4,17.6,93,29.98,7.0,NNE,12.7,-,N/A,Snow,Light Snow,20,2013-01-13 01:15:00
7:55 PM,19.4,17.6,93,30.00,7.0,NNE,11.5,-,N/A,Snow,Light Snow,30,2013-01-13 01:55:00
8:35 PM,19.4,17.6,93,30.00,7.0,NE,10.4,-,N/A,Snow,Light Snow,40,2013-01-13 02:35:00
8:55 PM,19.4,17.6,93,30.01,7.0,NNE,8.1,-,N/A,Snow,Light Snow,30,2013-01-13 02:55:00
9:15 PM,19.4,17.6,93,30.03,5.0,NNE,8.1,-,N/A,Snow,Light Snow,30,2013-01-13 03:15:00
9:35 PM,19.4,17.6,93,30.04,5.0,NE,9.2,-,N/A,Snow,Light Snow,50,2013-01-13 03:35:00
9:55 PM,19.4,14.0,80,30.01,7.0,NE,11.5,-,N/A,Snow,Light Snow,50,2013-01-13 03:55:00
10:15 PM,17.6,14.0,86,30.01,10.0,NE,8.1,-,N/A,Snow,Light Snow,40,2013-01-13 04:15:00
10:55 PM,14.0,12.2,93,30.01,10.0,North,5.8,-,N/A,,Mostly Cloudy,10,2013-01-13 04:55:00
11:35 PM,12.2,10.4,92,30.03,10.0,North,8.1,-,N/A,,Scattered Clouds,360,2013-01-13 05:35:00